Preview of NWS' New Version of Forecast
This preview is not operational and should not be used for support decisions.

Regional Weather Roundup (RWR)

Issued by National Weather Service (NWS)

                            
000
ASUS43 KDMX 201406
RWRIA 

WEATHER ROUNDUP FOR IOWA
NATIONAL WEATHER SERVICE DES MOINES IA
900 AM CDT SAT APR 20 2019

NOTE: "FAIR" INDICATES FEW OR NO CLOUDS BELOW 12,000 FEET WITH NO
SIGNIFICANT WEATHER AND/OR OBSTRUCTIONS TO VISIBILITY.

* - THESE STATIONS ARE NOT NWS STATIONS...THUS NOT UNDER NWS
QUALITY CONTROL.  THEY ALSO DO NOT REPORT WEATHER SUCH 
AS PRECIPITATION OR FOG.  

IAZ001>003-012>014-020>022-031>034-043>046-201500-
   NORTHWEST IOWA
  
CITY           SKY/WX    TMP DP  RH WIND       PRES   REMARKS
CARROLL *      SUNNY     57  34  41 SW12      29.90S                  
CHEROKEE *     MOSUNNY   54  36  51 S10       29.86F                  
DENISON *      SUNNY     55  34  44 S9        29.90F                  
LE MARS *      SUNNY     55  34  44 S16       29.82F                  
SHELDON *      SUNNY     55  36  47 S14G23    29.81F                  
SIOUX CITY     SUNNY     54  36  50 SE8       29.84F                  
SPENCER        SUNNY     54  36  50 S14       29.85F                  
STORM LAKE *   SUNNY     55  34  44 S14       29.84F                  
$$
 
IAZ055>058-069>071-079>083-090>094-201500-
   SOUTHWEST IOWA
  
CITY           SKY/WX    TMP DP  RH WIND       PRES   REMARKS
ATLANTIC *     SUNNY     54  36  50 S9        29.91F                  
AUDUBON *      SUNNY     54  39  58 CALM      29.92S                  
CLARINDA *     SUNNY     48  36  61 S6        29.97S                  
COUNCIL BLFS * SUNNY     55  32  41 S12       29.90F                  
CRESTON *      SUNNY     54  34  47 S13       29.94S                  
HARLAN  *      MOSUNNY   50  36  57 S12       29.91S                  
LAMONI         SUNNY     54  34  46 S7        29.95S                  
RED OAK *      SUNNY     54  36  50 S9        29.93F                  
SHENANDOAH *   SUNNY     57  34  41 SW12      29.93S                  
$$
 
IAZ047>049-059>061-072>074-084-201500-
   CENTRAL IOWA
  
CITY           SKY/WX    TMP DP  RH WIND       PRES   REMARKS
AMES           SUNNY     54  38  54 S7        29.94S                  
ANKENY *       SUNNY     54  34  47 MISG      29.95F                  
BOONE *        SUNNY     55  32  41 S13       29.92S                  
CHARITON *     SUNNY     55  36  47 SW5       29.95F                  
DES MOINES     SUNNY     53  34  48 S6        29.95S                  
GRINNELL*      SUNNY     51  34  50 CALM      29.96S                  
KNOXVILLE *    SUNNY     52  36  54 W3        29.95S                  
MARSHALLTOWN   SUNNY     49  36  61 SW5       29.94R                  
NEWTON *       SUNNY     52  36  54 W7        29.95S                  
PELLA *        SUNNY     53  37  53 SW3       29.96S                  
PERRY *        FAIR      53  32  45 S8        29.93S                  
$$
 
IAZ004>006-015-016-023>025-035-036-201500-
   NORTH CENTRAL IOWA
  
CITY           SKY/WX    TMP DP  RH WIND       PRES   REMARKS
ALGONA *       SUNNY     52  36  54 S16       29.88S                  
CLARION *      SUNNY     54  34  47 S13       29.91F                  
ESTHERVILLE    SUNNY     49  34  56 S14G24    29.85F                  
FORT DODGE *   SUNNY     54  36  50 S7        29.91F                  
MASON CITY     SUNNY     53  37  54 S10       29.92F                  
FOREST CITY *  FAIR      54  36  50 S9        29.90F                  
IOWA FALLS *   FAIR      53  36  51 SW9       29.94S                  
$$

IAZ007>011-017>019-026>030-037>042-050>054-066-201500-
   NORTHEAST IOWA
  
CITY           SKY/WX    TMP DP  RH WIND       PRES   REMARKS
CEDAR RAPIDS   FAIR      51  35  54 CALM      29.94S                  
CHARLES CITY * FAIR      50  36  57 S6        29.93F                  
CLINTON *      FAIR      48  28  46 N9        29.95R                  
DECORAH *      FAIR      52  34  50 CALM      29.91F                  
DUBUQUE        FAIR      50  26  39 N6        29.94S                  
MONTICELLO *   FAIR      48  36  61 CALM      29.95R                  
OELWEIN *      FAIR      52  34  50 CALM      29.94S                  
WATERLOO       FAIR      49  37  63 CALM      29.94S                  
$$
 
IAZ064-065-067-068-078-201500-
   EAST CENTRAL IOWA
  
CITY           SKY/WX    TMP DP  RH WIND       PRES   REMARKS
DAVENPORT      FAIR      50  24  36 N6        29.96R                  
IOWA CITY      FAIR      52  31  44 CALM      29.96S                  
MT. PLEASANT * SUNNY     54  32  43 N5        29.95S                  
MUSCATINE *    FAIR      50  25  37 VRB3      29.96S                  
QUAD CITIES    FAIR      51  25  36 N6        29.94R                  
$$
 
IAZ062-063-075>077-085>089-095>099-201500-
   SOUTHEAST IOWA
  
CITY           SKY/WX    TMP DP  RH WIND       PRES   REMARKS
BURLINGTON     SUNNY     52  25  35 NE7       29.94R                  
FAIRFIELD *    SUNNY     52  30  43 CALM      29.95S                  
FORT MADISON * SUNNY     52  27  37 NE5       29.96R                  
KEOKUK *       SUNNY     52  25  35 VRB5      29.95R                  
OSKALOOSA *    FAIR      52  31  44 NW3       29.96S                  
OTTUMWA        SUNNY     52  34  50 NW3       29.95S                  
WASHINGTON *   SUNNY     52  27  37 CALM      29.96S                  
$$

ABBREVIATIONS USED IN REMARKS
   TC - TEMPERATURES IN CELSIUS
  WCI - WIND CHILL INDEX
   HX - HEAT INDEX
  VSB - VISIBILITY  
$$